Showing default

YAOGAN 20A, 40109

Orbit data source: Space-Track

YAOGAN 20A, 40109 is a payload satellite owned by PLA GAD (CN) in LEO that was launched on Sat, 09 Aug 2014 UTC via a CHANG ZHENG 4C launch vehicle from the Jiuquan Satellite Launch Center, China (JSC). Payload-class satellites include a variety of spacecraft equipped with specific instruments for various scientific and technological missions. These include communications satellites like Starlink; space stations such as the ISS; scientific satellites like the Hubble; Earth observation satellites from companies like Planet Labs, Umbra, and HawkEye 360; GPS; miniature CubeSats for education and research; and military/defense satellites.

Loading next visibility...
Identifier
40109, 2014-047A
Orbit
LEO
Last TLE update
9 hours ago
Origin
Manufacturer
CAST
Mission
Operational Defense Sigint
Bus & Motor
JB-8, Unknown motor
Mass
~500 kg wet, ~500 kg dry
Launch date (UTC)
2014-08-09 (11 years ago)
Launch vehicle
CHANG ZHENG 4C
Launch site
Jiuquan Satellite Launch Center, China (JSC)
Object type
Payload
Rocket body
Debris
Shape & HBR
Box + 2 Pan, 1 m
Radar Cross Section
0.446 m², Large (>1 m²)

Expand to show TLE details & history

TLE from 9 hours ago
0 YAOGAN 20A
1 40109U 14047A   25128.87623603 -.00000021  00000-0  80240-4 0  9995
2 40109  63.3838 341.1998 0354744  12.6120 348.3500 13.45389630528045
Epoch: 2025-05-08T21:01Z
Definitive object data (Epoch: 2025-05-08T21:01:46.792Z)
Latitude
-0.00003°
Longitude
158.81437°
Altitude
831.971 km
Speed
7.565 km/s
True Right ascension
22h 44m 47s
True Declination
0° 00' 00"
Sunlit
Object was in daylight at TLE epoch
Visualization TLE readout
Latitude
-53.11933°
Longitude
116.24984°
Altitude
1,035.069 km
Speed
7.37 km/s
Apparent Right ascension
23h 01m 37s
Apparent Declination
-56° 02' 16"
Sunlit
Object is in daylight
Visualization observer readout
Local Sidereal Time
13:47:44
Azimuth
134.799° SE
Elevation
-58.537°
Doppler factor
1
Orbital elements
Apogee altitude
1,352.959 km
Perigee altitude
823.238 km
Semi-major axis
7,466.236 km
Eccentricity
0.0354744
Inclination
63.3838°
RAAN
341.1998°
Arg. of periapsis
12.612°
True anomaly
347.49197°
Mean anomaly
348.35°
Eccentric anomaly
347.9248°
Mean motion
3.36427 °/min
BSTAR
0.00008024
Orbital period
107.01 mins
Loading maneuver chart data...
Loading SW <> Apogee altitude chart data...
Loading historical data...
Loading historical data...
Loading historical data...
Loading historical data...
Loading historical data...
Loading historical data...
Loading historical data...

YAOGAN 20A Visibility forecast

Observer location: undefined°, undefined°

Span
Click to sort rows by Start time (UTC) header in descending order
Start Az.
Max El. time (UTC)
Max El. Az.
Max El.
End time (UTC)
End Az.
9 mins2025-05-09 14:59:01.761Z168.544° S2025-05-09 15:03:01.761Z116.922° SE26.27°2025-05-09 15:08:01.761Z54.74° ENE
9 mins2025-05-09 16:50:01.761Z252.187° W2025-05-09 16:53:01.761Z300.772° NW33.5°2025-05-09 16:59:01.761Z22.682° NE
8 mins2025-05-09 22:30:01.761Z359.196° N2025-05-09 22:34:01.761Z40.049° NE19.308°2025-05-09 22:38:01.761Z75.273° E
13 mins2025-05-10 00:20:01.761Z332.04° NNW2025-05-10 00:25:01.761Z39.602° NE43.781°2025-05-10 00:33:01.761Z139.62° SSE
10 mins2025-05-10 02:11:01.761Z292.179° WNW2025-05-10 02:15:01.761Z254.2° W22.704°2025-05-10 02:21:01.761Z202.343° SSW
|